Wetterdaten: Woche 19.01.09 - 25.01.09 (KW4)
Datum Zeit Temperatur Luftfeuchte Luftdruck Niederschlag Windrichtung Wind
19.01.2009 00:00 1,3 C 94 % 1013,2 hPa 0,0 l/m SW 12,8 km/h (3 Bft)
19.01.2009 01:00 0,8 C 96 % 1013,2 hPa 0,0 l/m SW 10,9 km/h (2 Bft)
19.01.2009 02:00 0,2 C 97 % 1012,8 hPa 0,0 l/m SW 9,9 km/h (2 Bft)
19.01.2009 03:00 0,7 C 98 % 1012,0 hPa 0,0 l/m SW 14,5 km/h (3 Bft)
19.01.2009 04:00 0,9 C 96 % 1010,4 hPa 0,0 l/m SW 8,7 km/h (2 Bft)
19.01.2009 05:00 0,4 C 97 % 1008,5 hPa 0,0 l/m S-SW 6,3 km/h (2 Bft)
19.01.2009 06:00 0,2 C 97 % 1007,2 hPa 0,0 l/m S 3,9 km/h (1 Bft)
19.01.2009 07:00 -0,1 C 97 % 1005,9 hPa 0,0 l/m SO 2,5 km/h (1 Bft)
19.01.2009 08:00 -0,1 C 98 % 1004,8 hPa 0,0 l/m W-NW 1,1 km/h (0 Bft)
19.01.2009 09:00 0,3 C 99 % 1004,0 hPa 0,0 l/m W-NW 3,5 km/h (1 Bft)
19.01.2009 10:00 0,6 C 99 % 1003,1 hPa 0,2 l/m O-NO 2,9 km/h (1 Bft)
19.01.2009 11:00 0,9 C 98 % 1001,5 hPa 0,4 l/m O 3,3 km/h (1 Bft)
19.01.2009 12:00 1,3 C 98 % 1000,2 hPa 0,2 l/m S-SW 3,2 km/h (1 Bft)
19.01.2009 13:00 2,5 C 97 % 999,0 hPa 0,0 l/m SW 10,9 km/h (2 Bft)
19.01.2009 14:00 2,8 C 97 % 998,3 hPa 0,0 l/m SW 11,7 km/h (2 Bft)
19.01.2009 15:00 2,5 C 97 % 997,9 hPa 0,0 l/m SW 10,6 km/h (2 Bft)
19.01.2009 16:00 2,4 C 98 % 998,2 hPa 0,0 l/m SW 17,2 km/h (3 Bft)
19.01.2009 17:00 3,3 C 97 % 997,8 hPa 0,0 l/m SW 26,8 km/h (4 Bft)
19.01.2009 18:00 3,7 C 96 % 998,0 hPa 0,6 l/m SW 26,6 km/h (4 Bft)
19.01.2009 19:00 4,9 C 95 % 997,8 hPa 0,0 l/m W 31,1 km/h (5 Bft)
19.01.2009 20:00 5,5 C 92 % 998,0 hPa 0,0 l/m W-SW 25,4 km/h (4 Bft)
19.01.2009 21:00 5,2 C 93 % 997,2 hPa 0,2 l/m W 19,2 km/h (3 Bft)
19.01.2009 22:00 5,3 C 92 % 997,0 hPa 0,4 l/m W-SW 21,7 km/h (4 Bft)
19.01.2009 23:00 4,5 C 95 % 996,6 hPa 0,0 l/m SW 20,8 km/h (4 Bft)
20.01.2009 00:00 5,0 C 93 % 996,1 hPa 0,0 l/m W-SW 19,0 km/h (3 Bft)
20.01.2009 01:00 4,9 C 93 % 996,4 hPa 1,2 l/m W-SW 21,7 km/h (4 Bft)
20.01.2009 02:00 4,1 C 95 % 996,7 hPa 1,4 l/m W-SW 16,1 km/h (3 Bft)
20.01.2009 03:00 3,6 C 96 % 997,1 hPa 0,0 l/m SW 11,7 km/h (2 Bft)
20.01.2009 04:00 3,5 C 96 % 997,7 hPa 0,0 l/m SW 18,0 km/h (3 Bft)
20.01.2009 05:00 3,0 C 95 % 997,8 hPa 0,0 l/m SW 14,0 km/h (3 Bft)
20.01.2009 06:00 2,3 C 97 % 998,1 hPa 0,0 l/m SW 20,8 km/h (4 Bft)
20.01.2009 07:00 2,0 C 97 % 998,7 hPa 0,0 l/m SW 9,5 km/h (2 Bft)
20.01.2009 08:00 1,7 C 97 % 999,2 hPa 0,2 l/m SW 11,2 km/h (2 Bft)
20.01.2009 09:00 1,4 C 97 % 999,8 hPa 0,0 l/m SW 11,3 km/h (2 Bft)
20.01.2009 10:00 1,3 C 98 % 999,6 hPa 0,0 l/m S-SW 16,4 km/h (3 Bft)
20.01.2009 11:00 1,4 C 98 % 1000,3 hPa 0,0 l/m SW 13,8 km/h (3 Bft)
20.01.2009 12:00 1,6 C 97 % 1000,5 hPa 0,0 l/m SW 12,2 km/h (2 Bft)
20.01.2009 13:00 2,0 C 97 % 999,8 hPa 0,0 l/m S-SW 7,4 km/h (2 Bft)
20.01.2009 14:00 2,2 C 95 % 999,3 hPa 0,0 l/m S 5,7 km/h (1 Bft)
20.01.2009 15:00 2,3 C 94 % 999,3 hPa 0,0 l/m S 0,9 km/h (0 Bft)
20.01.2009 16:00 2,1 C 94 % 999,6 hPa 0,0 l/m N 0,9 km/h (0 Bft)
20.01.2009 17:00 1,5 C 95 % 999,7 hPa 0,0 l/m N 4,4 km/h (1 Bft)
20.01.2009 18:00 1,2 C 96 % 999,9 hPa 0,0 l/m N-NO 5,3 km/h (1 Bft)
20.01.2009 19:00 1,2 C 96 % 1000,4 hPa 0,0 l/m N-NO 5,7 km/h (1 Bft)
20.01.2009 20:00 1,1 C 96 % 1000,8 hPa 0,0 l/m NO 5,5 km/h (1 Bft)
20.01.2009 21:00 0,9 C 96 % 1001,4 hPa 0,0 l/m N-NO 4,1 km/h (1 Bft)
20.01.2009 22:00 0,6 C 96 % 1002,2 hPa 0,0 l/m N-NO 3,6 km/h (1 Bft)
20.01.2009 23:00 0,7 C 97 % 1002,3 hPa 0,0 l/m N-NO 3,9 km/h (1 Bft)
21.01.2009 00:00 0,7 C 97 % 1002,4 hPa 0,0 l/m N-NO 3,3 km/h (1 Bft)
21.01.2009 01:00 0,6 C 97 % 1003,0 hPa 0,0 l/m N 4,3 km/h (1 Bft)
21.01.2009 02:00 0,6 C 98 % 1003,4 hPa 0,0 l/m N 3,5 km/h (1 Bft)
21.01.2009 03:00 0,6 C 98 % 1003,8 hPa 0,0 l/m N 1,6 km/h (1 Bft)
21.01.2009 04:00 0,6 C 98 % 1003,7 hPa 0,0 l/m N 1,7 km/h (1 Bft)
21.01.2009 05:00 0,6 C 98 % 1004,0 hPa 0,0 l/m N 0,4 km/h (0 Bft)
21.01.2009 06:00 0,6 C 98 % 1004,5 hPa 0,4 l/m N 0,8 km/h (0 Bft)
21.01.2009 07:00 0,6 C 98 % 1005,3 hPa 0,2 l/m N 1,5 km/h (1 Bft)
21.01.2009 08:00 0,6 C 98 % 1006,3 hPa 0,2 l/m W-NW 7,1 km/h (2 Bft)
21.01.2009 09:00 0,5 C 96 % 1007,0 hPa 0,4 l/m N-NW 9,1 km/h (2 Bft)
21.01.2009 10:00 0,8 C 96 % 1007,8 hPa 0,0 l/m W-NW 4,5 km/h (1 Bft)
21.01.2009 11:00 1,2 C 95 % 1008,4 hPa 0,0 l/m W 5,6 km/h (1 Bft)
21.01.2009 12:00 1,4 C 93 % 1008,5 hPa 0,0 l/m W-NW 3,1 km/h (1 Bft)
21.01.2009 13:00 1,3 C 95 % 1008,4 hPa 0,0 l/m SW 3,7 km/h (1 Bft)
21.01.2009 14:00 1,4 C 96 % 1008,8 hPa 0,0 l/m SW 4,8 km/h (1 Bft)
21.01.2009 15:00 1,6 C 94 % 1009,1 hPa 0,0 l/m SW 6,4 km/h (2 Bft)
21.01.2009 16:00 1,5 C 95 % 1009,6 hPa 0,0 l/m SW 4,9 km/h (1 Bft)
21.01.2009 17:00 1,0 C 94 % 1009,5 hPa 0,0 l/m W-SW 1,6 km/h (1 Bft)
21.01.2009 18:00 -0,0 C 95 % 1009,8 hPa 0,0 l/m N 0,5 km/h (0 Bft)
21.01.2009 19:00 -0,3 C 96 % 1010,2 hPa 0,0 l/m W-SW 0,8 km/h (0 Bft)
21.01.2009 20:00 -0,7 C 97 % 1010,7 hPa 0,0 l/m W 2,0 km/h (1 Bft)
21.01.2009 21:00 -1,3 C 97 % 1010,9 hPa 0,0 l/m S-SW 1,2 km/h (1 Bft)
21.01.2009 22:00 -1,7 C 98 % 1011,2 hPa 0,0 l/m N 0,7 km/h (0 Bft)
21.01.2009 23:00 -1,7 C 98 % 1011,5 hPa 0,0 l/m N 0,4 km/h (0 Bft)
22.01.2009 00:00 -1,7 C 98 % 1011,6 hPa 0,0 l/m N 0,4 km/h (0 Bft)
22.01.2009 01:00 -1,8 C 98 % 1011,6 hPa 0,0 l/m N 0,5 km/h (0 Bft)
22.01.2009 02:00 -1,8 C 98 % 1011,4 hPa 0,0 l/m N 0,4 km/h (0 Bft)
22.01.2009 03:00 -1,7 C 99 % 1010,9 hPa 0,0 l/m SW 4,6 km/h (1 Bft)
22.01.2009 04:00 -1,1 C 99 % 1010,4 hPa 0,0 l/m W-SW 4,4 km/h (1 Bft)
22.01.2009 05:00 -1,3 C 99 % 1010,0 hPa 0,0 l/m W-SW 1,7 km/h (1 Bft)
22.01.2009 06:00 -1,3 C 99 % 1009,3 hPa 0,0 l/m W-SW 1,6 km/h (1 Bft)
22.01.2009 07:00 -1,3 C 99 % 1009,2 hPa 0,0 l/m SW 3,3 km/h (1 Bft)
22.01.2009 08:00 -1,3 C 99 % 1008,9 hPa 0,0 l/m SW 4,8 km/h (1 Bft)
22.01.2009 09:00 -1,2 C 99 % 1008,7 hPa 0,0 l/m W-SW 3,6 km/h (1 Bft)
22.01.2009 10:00 -0,7 C 99 % 1008,5 hPa 0,0 l/m SW 3,6 km/h (1 Bft)
22.01.2009 11:00 -0,1 C 95 % 1007,8 hPa 0,0 l/m S-SW 5,1 km/h (1 Bft)
22.01.2009 12:00 0,3 C 92 % 1006,8 hPa 0,0 l/m SW 4,9 km/h (1 Bft)
22.01.2009 13:00 0,7 C 90 % 1005,4 hPa 0,0 l/m SW 7,4 km/h (2 Bft)
22.01.2009 14:00 1,5 C 89 % 1004,1 hPa 0,0 l/m S-SW 8,8 km/h (2 Bft)
22.01.2009 15:00 1,6 C 88 % 1003,7 hPa 0,0 l/m W-SW 4,7 km/h (1 Bft)
22.01.2009 16:00 0,8 C 90 % 1003,3 hPa 0,0 l/m W 3,9 km/h (1 Bft)
22.01.2009 17:00 -0,3 C 91 % 1003,1 hPa 0,0 l/m W-NW 4,1 km/h (1 Bft)
22.01.2009 18:00 -1,4 C 92 % 1002,5 hPa 0,0 l/m N 1,6 km/h (1 Bft)
22.01.2009 19:00 -2,2 C 95 % 1001,8 hPa 0,0 l/m SW 2,7 km/h (1 Bft)
22.01.2009 20:00 -1,8 C 97 % 1001,7 hPa 0,0 l/m SW 5,6 km/h (1 Bft)
22.01.2009 21:00 -1,6 C 97 % 1001,7 hPa 0,0 l/m SW 7,2 km/h (2 Bft)
22.01.2009 22:00 -1,6 C 97 % 1001,3 hPa 0,0 l/m S-SW 9,3 km/h (2 Bft)
22.01.2009 23:00 -1,6 C 97 % 1000,0 hPa 0,0 l/m S-SW 9,0 km/h (2 Bft)
23.01.2009 00:00 -1,9 C 97 % 998,8 hPa 0,0 l/m S-SW 10,2 km/h (2 Bft)
23.01.2009 01:00 -2,3 C 97 % 997,2 hPa 0,0 l/m S 5,2 km/h (1 Bft)
23.01.2009 02:00 -2,7 C 97 % 996,6 hPa 0,0 l/m SO 2,8 km/h (1 Bft)
23.01.2009 03:00 -2,5 C 97 % 995,4 hPa 0,0 l/m S-SW 2,9 km/h (1 Bft)
23.01.2009 04:00 -2,9 C 97 % 993,9 hPa 0,0 l/m S-SW 4,1 km/h (1 Bft)
23.01.2009 05:00 -3,0 C 97 % 992,6 hPa 0,0 l/m SW 2,4 km/h (1 Bft)
23.01.2009 06:00 -2,8 C 96 % 990,8 hPa 0,0 l/m N 0,3 km/h (0 Bft)
23.01.2009 07:00 -2,8 C 96 % 989,1 hPa 0,0 l/m W-SW 2,4 km/h (1 Bft)
23.01.2009 08:00 -2,6 C 97 % 987,5 hPa 0,0 l/m O-SO 3,9 km/h (1 Bft)
23.01.2009 09:00 -1,9 C 96 % 985,9 hPa 0,0 l/m SO 4,4 km/h (1 Bft)
23.01.2009 10:00 -1,1 C 94 % 984,5 hPa 0,0 l/m S-SW 9,7 km/h (2 Bft)
23.01.2009 11:00 -0,6 C 93 % 982,9 hPa 0,4 l/m S-SW 14,8 km/h (3 Bft)
23.01.2009 12:00 0,4 C 95 % 981,1 hPa 1,0 l/m SW 14,7 km/h (3 Bft)
23.01.2009 13:00 1,6 C 95 % 978,9 hPa 1,2 l/m SW 22,1 km/h (4 Bft)
23.01.2009 14:00 2,4 C 96 % 977,9 hPa 1,2 l/m W-SW 23,2 km/h (4 Bft)
23.01.2009 15:00 4,0 C 95 % 978,9 hPa 0,8 l/m SW 35,7 km/h (5 Bft)
23.01.2009 16:00 4,8 C 95 % 981,1 hPa 2,0 l/m W-SW 33,7 km/h (5 Bft)
23.01.2009 17:00 4,5 C 91 % 983,6 hPa 1,4 l/m W 44,7 km/h (6 Bft)
23.01.2009 18:00 3,4 C 92 % 984,9 hPa 0,0 l/m W-SW 31,1 km/h (5 Bft)
23.01.2009 19:00 3,4 C 92 % 986,5 hPa 0,0 l/m W-SW 30,1 km/h (5 Bft)
23.01.2009 20:00 2,9 C 93 % 988,0 hPa 0,6 l/m W 37,0 km/h (5 Bft)
23.01.2009 21:00 2,2 C 94 % 988,8 hPa 1,0 l/m W-SW 32,9 km/h (5 Bft)
23.01.2009 22:00 1,7 C 94 % 989,4 hPa 0,8 l/m W 29,1 km/h (5 Bft)
23.01.2009 23:00 1,3 C 94 % 989,8 hPa 0,0 l/m SW 20,9 km/h (4 Bft)
24.01.2009 00:00 1,2 C 93 % 990,4 hPa 0,0 l/m SW 14,8 km/h (3 Bft)
24.01.2009 01:00 1,1 C 92 % 990,7 hPa 0,0 l/m W-SW 19,2 km/h (3 Bft)
24.01.2009 02:00 0,9 C 94 % 990,8 hPa 0,0 l/m W-SW 17,6 km/h (3 Bft)
24.01.2009 03:00 0,7 C 94 % 989,9 hPa 0,0 l/m S-SW 12,0 km/h (2 Bft)
24.01.2009 04:00 0,2 C 93 % 988,8 hPa 0,0 l/m SW 9,3 km/h (2 Bft)
24.01.2009 05:00 -0,5 C 94 % 987,9 hPa 0,0 l/m SW 3,1 km/h (1 Bft)
24.01.2009 06:00 -1,2 C 95 % 987,4 hPa 0,0 l/m N 0,8 km/h (0 Bft)
24.01.2009 07:00 -1,9 C 95 % 987,1 hPa 0,0 l/m N 0,3 km/h (0 Bft)
24.01.2009 08:00 -2,4 C 95 % 986,9 hPa 0,0 l/m S-SW 0,9 km/h (0 Bft)
24.01.2009 09:00 -1,8 C 98 % 986,3 hPa 0,0 l/m N-NO 3,9 km/h (1 Bft)
24.01.2009 10:00 -0,3 C 98 % 986,5 hPa 0,0 l/m N-NO 6,4 km/h (2 Bft)
24.01.2009 11:00 1,0 C 92 % 986,9 hPa 0,0 l/m N-NO 6,1 km/h (2 Bft)
24.01.2009 12:00 2,5 C 83 % 986,3 hPa 0,0 l/m NO 12,5 km/h (3 Bft)
24.01.2009 13:00 3,3 C 72 % 986,1 hPa 0,0 l/m O-NO 13,0 km/h (3 Bft)
24.01.2009 14:00 3,3 C 74 % 986,3 hPa 0,0 l/m NO 10,1 km/h (2 Bft)
24.01.2009 15:00 3,0 C 79 % 986,7 hPa 0,0 l/m NO 12,1 km/h (2 Bft)
24.01.2009 16:00 2,6 C 81 % 988,1 hPa 0,0 l/m N-NO 10,3 km/h (2 Bft)
24.01.2009 17:00 1,6 C 86 % 989,9 hPa 0,0 l/m N 10,1 km/h (2 Bft)
24.01.2009 18:00 1,0 C 87 % 991,5 hPa 0,0 l/m N 9,0 km/h (2 Bft)
24.01.2009 19:00 0,6 C 88 % 992,7 hPa 0,0 l/m N-NW 6,8 km/h (2 Bft)
24.01.2009 20:00 0,3 C 89 % 994,1 hPa 0,0 l/m N-NW 4,3 km/h (1 Bft)
24.01.2009 21:00 0,0 C 90 % 995,6 hPa 0,0 l/m N-NW 4,0 km/h (1 Bft)
24.01.2009 22:00 -0,2 C 89 % 997,0 hPa 0,0 l/m N-NW 4,3 km/h (1 Bft)
24.01.2009 23:00 -0,4 C 90 % 998,4 hPa 0,0 l/m N-NW 4,9 km/h (1 Bft)
25.01.2009 00:00 -0,8 C 90 % 999,6 hPa 0,0 l/m NW 3,2 km/h (1 Bft)
25.01.2009 01:00 -1,3 C 91 % 1000,3 hPa 0,0 l/m N 0,4 km/h (0 Bft)
25.01.2009 02:00 -2,0 C 92 % 1001,1 hPa 0,0 l/m N 0,3 km/h (0 Bft)
25.01.2009 03:00 -2,1 C 96 % 1001,5 hPa 0,0 l/m N 0,7 km/h (0 Bft)
25.01.2009 04:00 -1,8 C 96 % 1001,8 hPa 0,0 l/m NW 2,5 km/h (1 Bft)
25.01.2009 05:00 -1,6 C 96 % 1002,0 hPa 0,0 l/m S-SW 2,4 km/h (1 Bft)
25.01.2009 06:00 -1,3 C 96 % 1002,1 hPa 0,0 l/m SW 4,7 km/h (1 Bft)
25.01.2009 07:00 -1,3 C 96 % 1002,4 hPa 0,0 l/m N 0,1 km/h (0 Bft)
25.01.2009 08:00 -1,2 C 95 % 1002,3 hPa 0,0 l/m N 0,3 km/h (0 Bft)
25.01.2009 09:00 -1,1 C 96 % 1002,2 hPa 0,0 l/m N 0,0 km/h (0 Bft)
25.01.2009 10:00 -0,5 C 96 % 1001,6 hPa 0,0 l/m S-SW 2,9 km/h (1 Bft)
25.01.2009 11:00 1,1 C 90 % 1000,6 hPa 0,0 l/m SO 5,1 km/h (1 Bft)
25.01.2009 12:00 3,2 C 79 % 999,3 hPa 0,0 l/m O-SO 9,9 km/h (2 Bft)
25.01.2009 13:00 4,5 C 65 % 998,0 hPa 0,0 l/m O-SO 16,6 km/h (3 Bft)
25.01.2009 14:00 4,7 C 64 % 997,6 hPa 0,0 l/m O-SO 16,8 km/h (3 Bft)
25.01.2009 15:00 4,3 C 62 % 997,5 hPa 0,0 l/m O 16,4 km/h (3 Bft)
25.01.2009 16:00 3,3 C 64 % 997,5 hPa 0,0 l/m O 12,3 km/h (3 Bft)
25.01.2009 17:00 2,3 C 71 % 997,4 hPa 0,0 l/m O-NO 6,8 km/h (2 Bft)
25.01.2009 18:00 1,3 C 77 % 997,4 hPa 0,0 l/m O-NO 6,1 km/h (2 Bft)
25.01.2009 19:00 0,4 C 79 % 997,4 hPa 0,0 l/m NO 5,3 km/h (1 Bft)
25.01.2009 20:00 -0,6 C 82 % 997,4 hPa 0,0 l/m N-NO 2,9 km/h (1 Bft)
25.01.2009 21:00 -1,5 C 85 % 997,7 hPa 0,0 l/m N-NO 4,8 km/h (1 Bft)
25.01.2009 22:00 -2,1 C 87 % 998,1 hPa 0,0 l/m N-NO 4,3 km/h (1 Bft)
25.01.2009 23:00 -2,7 C 90 % 998,2 hPa 0,0 l/m N 4,3 km/h (1 Bft)
Min-Datum _ 23.01.09 25.01.09 23.01.09 - - 19.01.09
_ Min-Zeit 05:15 15:10 14:25 - - 07:25
Minimum _ -3,1 C 60 % 977,4 hPa - - 0,0 km/h (0 Bft)
Max-Datum _ 19.01.09 19.01.09 19.01.09 23.01.09 - 23.01.09
_ Max-Zeit 20:15 09:25 01:00 16:30 - 17:30
Maximum _ 5,7 C 99 % 1013,5 hPa 2,0 l/m - 64,4 km/h
W (8 Bft)
Durchschnitt _ 0,7 C 93 % 999,0 hPa #16,4 l/m SW 8,7 km/h (2 Bft)